CST,Max TemperatureF,Mean TemperatureF,Min TemperatureF,Max Dew PointF,MeanDew PointF,Min DewpointF,Max Humidity, Mean Humidity, Min Humidity, Max Sea Level PressureIn, Mean Sea Level PressureIn, Min Sea Level PressureIn, Max VisibilityMiles, Mean VisibilityMiles, Min VisibilityMiles, Max Wind SpeedMPH, Mean Wind SpeedMPH, Max Gust SpeedMPH,PrecipitationIn, CloudCover, Events, WindDirDegrees
2014-1-1,35,25,15,23,21,16,100,88,60,30.34,30.12,29.90,10,9,2,21,9,25,0.00,6,Snow,356
2014-1-2,44,29,14,28,22,14,100,79,43,30.32,30.24,30.12,10,10,5,18,8,22,0.00,1,,243
2014-1-3,60,40,19,32,26,19,100,67,27,30.10,29.76,29.56,10,10,10,18,11,22,0.00,0,,202
2014-1-4,50,34,15,32,23,10,100,82,47,30.14,29.92,29.63,10,8,1,22,15,29,0.00,5,Snow,354
2014-1-5,19,6,-9,12,5,-15,92,81,61,30.48,30.30,30.14,10,9,2,20,10,25,0.00,5,Snow,344
2014-1-6,23,7,-9,16,0,-15,93,70,49,30.45,30.32,30.12,10,10,10,18,9,16,0.00,0,,261
2014-1-7,50,34,17,32,23,12,86,69,35,30.10,30.02,29.96,10,10,10,16,10,,0.00,1,,259
2014-1-8,33,25,17,27,22,18,100,84,69,30.20,30.12,29.99,10,10,10,20,11,28,0.00,4,,83
2014-1-9,37,27,17,32,24,18,100,96,81,30.15,29.93,29.72,10,7,0,21,11,26,0.00,1,Fog,172
2014-1-10,41,32,23,36,29,21,100,92,65,29.79,29.66,29.59,10,7,0,28,11,37,0.00,6,Fog-Rain-Snow,290
2014-1-11,53,40,28,28,26,23,86,60,35,29.99,29.86,29.67,10,10,10,18,13,24,0.00,2,,251
2014-1-12,51,42,33,32,26,18,75,54,34,29.87,29.64,29.52,10,10,10,25,13,33,0.00,2,,289
2014-1-13,53,38,23,25,22,18,80,55,30,29.95,29.90,29.84,10,10,10,30,16,39,0.00,2,,280
2014-1-14,46,34,21,32,27,18,100,75,42,30.33,30.20,29.92,10,10,7,31,16,40,0.00,5,Snow,317
2014-1-15,59,44,28,28,24,21,80,57,29,30.29,30.07,29.92,10,10,10,22,10,29,0.00,4,,269
2014-1-16,44,34,23,25,17,10,75,48,25,30.24,30.11,29.97,10,8,2,41,19,52,0.00,3,,313
2014-1-17,51,32,14,25,18,10,93,61,35,30.24,30.11,29.97,10,10,10,18,10,25,0.00,1,,277
2014-1-18,51,36,21,27,19,9,68,48,28,30.17,30.06,29.95,10,10,10,37,17,46,0.00,0,,301
2014-1-19,68,44,21,27,20,12,74,46,21,30.09,29.97,29.90,10,10,10,23,11,31,0.00,0,,277
2014-1-20,50,36,21,25,19,16,86,51,30,30.41,30.16,29.91,10,9,2,33,16,45,0.00,2,,323
2014-1-21,60,34,8,23,16,7,100,60,19,30.41,30.19,30.01,10,10,10,24,9,33,0.00,0,,272
2014-1-22,41,28,12,27,18,3,86,69,55,30.43,30.19,30.10,10,10,5,24,11,29,0.00,4,Snow,360
2014-1-23,19,12,5,9,1,-6,92,65,38,30.71,30.57,30.40,10,10,4,18,11,18,0.00,3,Snow,295
2014-1-24,55,32,8,30,21,7,93,60,29,30.41,30.13,30.02,10,10,10,28,15,43,0.00,1,,271
2014-1-25,59,46,32,32,28,25,80,54,36,30.13,30.01,29.84,10,10,10,23,15,30,0.00,0,,285
2014-1-26,59,39,19,30,24,0,81,59,31,30.24,29.89,29.75,10,10,2,37,15,50,0.00,2,,323
2014-1-27,19,14,10,14,4,-2,100,64,42,30.32,30.28,30.24,10,9,3,20,10,24,0.00,7,Snow,134
2014-1-28,28,16,5,14,8,1,100,76,47,30.34,30.23,30.13,10,10,10,15,9,24,0.00,2,,274
2014-1-29,51,28,6,23,13,3,86,53,22,30.12,29.86,29.48,10,10,10,24,10,31,0.00,0,,225
2014-1-30,50,37,24,36,27,18,100,69,42,29.90,29.69,29.42,10,8,1,32,16,41,0.00,6,Snow,32
2014-1-31,23,21,19,23,20,19,100,98,93,29.99,29.88,29.82,10,7,1,22,11,,0.00,8,Snow,71